Location: Anan
(43.3550°N, 0.8171°E)
Time: 20:43:55
(UTC+00:00)

ADEOS - Pass Details

Date: 14 May 2026
Orbit: 789 x 792 km, 98.8° (Epoch: 8 June)

Event Time Altitude Azimuth Distance (km) Brightness Sun altitude
Exits shadow 20:54:57 10° 186° (S) 2,356 5.7 -15.6°
Reaches altitude 10° 20:54:58 10° 187° (S) 2,351 5.6 -15.6°
Maximum altitude 20:59:57 47° 260° (W) 1,042 4.4 -16.3°
Drops below altitude 10° 21:04:59 10° 334° (NNW) 2,366 7.2 -16.9°
Sets 21:07:25 0° 341° (NNW) 3,299 8.1 -17.2°
